PIA656 OERK-OEMA

Flight info

Callsign PIA656
Flight time 1h 21m
Altitude 40000
Route IVONU Y216 ITSEP
Aircraft B772/H-SDE2E3FGHIJ5LORVWXY/LB1D1

Departure

Time 2026-04-21 21:53
Airport King Khalid International Airport (OERK)

Arrival

Time 2026-04-21 23:14
Airport Prince Mohammad Bin Abdulaziz Airport (OEMA)
Time Latitude Longitude Altitude Speed Heading
2026-04-21 20:37 24.96102 46.70373 2034 ft 0 kts 298°
2026-04-21 20:50 24.95183 46.69910 2044 ft 0 kts 60°
2026-04-21 20:50 24.95966 46.70352 2043 ft 0 kts 182°
2026-04-21 20:51 24.96154 46.70392 2044 ft 0 kts 258°
2026-04-21 20:52 24.96102 46.70375 2034 ft 0 kts 298°
2026-04-21 20:53 24.95055 46.71277 2045 ft 0 kts 240°
2026-04-21 21:34 24.95064 46.71293 2031 ft 4 kts 223°
2026-04-21 21:34 24.95084 46.71310 2026 ft 4 kts 223°
2026-04-21 21:34 24.95099 46.71327 2045 ft 4 kts 242°
2026-04-21 21:35 24.95104 46.71344 2043 ft 4 kts 292°
2026-04-21 21:35 24.95091 46.71360 2042 ft 4 kts 331°
2026-04-21 21:35 24.95068 46.71373 2044 ft 2 kts 332°
2026-04-21 21:35 24.95063 46.71376 2041 ft 1 kts 332°
2026-04-21 21:37 24.95065 46.71375 2041 ft 0 kts 332°
2026-04-21 21:37 24.95066 46.71374 2036 ft 0 kts 332°
2026-04-21 21:39 24.95068 46.71373 2044 ft 2 kts 332°
2026-04-21 21:39 24.95094 46.71358 2041 ft 5 kts 332°
2026-04-21 21:39 24.95126 46.71337 2045 ft 5 kts 329°
2026-04-21 21:40 24.95158 46.71317 2043 ft 5 kts 329°
2026-04-21 21:40 24.95191 46.71296 2045 ft 5 kts 329°
2026-04-21 21:40 24.95223 46.71275 2044 ft 5 kts 329°
2026-04-21 21:40 24.95255 46.71255 2044 ft 5 kts 330°
2026-04-21 21:41 24.95288 46.71234 2045 ft 5 kts 330°
2026-04-21 21:41 24.95320 46.71214 2043 ft 5 kts 330°
2026-04-21 21:41 24.95355 46.71199 2044 ft 5 kts 347°
2026-04-21 21:41 24.95390 46.71210 2042 ft 5 kts 35°
2026-04-21 21:42 24.95417 46.71240 2043 ft 5 kts 42°
2026-04-21 21:42 24.95451 46.71254 2039 ft 5 kts
2026-04-21 21:42 24.95488 46.71245 2040 ft 6 kts 338°
2026-04-21 21:42 24.95523 46.71225 2043 ft 6 kts 332°
2026-04-21 21:43 24.95557 46.71205 2045 ft 6 kts 330°
2026-04-21 21:43 24.95590 46.71184 2045 ft 6 kts 330°
2026-04-21 21:43 24.95624 46.71162 2043 ft 6 kts 330°
2026-04-21 21:43 24.95657 46.71141 2043 ft 6 kts 330°
2026-04-21 21:44 24.95691 46.71120 2043 ft 6 kts 330°
2026-04-21 21:44 24.95728 46.71096 2042 ft 8 kts 330°
2026-04-21 21:44 24.95777 46.71065 2042 ft 8 kts 330°
2026-04-21 21:44 24.95827 46.71034 2043 ft 8 kts 330°
2026-04-21 21:45 24.95877 46.71003 2042 ft 8 kts 330°
2026-04-21 21:45 24.95926 46.70971 2043 ft 8 kts 330°
2026-04-21 21:45 24.95976 46.70940 2041 ft 8 kts 330°
2026-04-21 21:45 24.96026 46.70908 2044 ft 8 kts 330°
2026-04-21 21:46 24.96075 46.70876 2042 ft 8 kts 330°
2026-04-21 21:46 24.96140 46.70836 2044 ft 12 kts 330°
2026-04-21 21:46 24.96187 46.70806 2042 ft 12 kts 330°
2026-04-21 21:46 24.96258 46.70761 2044 ft 12 kts 330°
2026-04-21 21:47 24.96329 46.70716 2043 ft 12 kts 329°
2026-04-21 21:47 24.96400 46.70671 2041 ft 12 kts 329°
2026-04-21 21:47 24.96471 46.70626 2039 ft 12 kts 330°
2026-04-21 21:47 24.96542 46.70581 2039 ft 12 kts 330°
2026-04-21 21:48 24.96613 46.70536 2041 ft 12 kts 330°
2026-04-21 21:48 24.96685 46.70491 2043 ft 12 kts 330°
2026-04-21 21:48 24.96755 46.70446 2043 ft 12 kts 330°
2026-04-21 21:48 24.96815 46.70408 2041 ft 12 kts 330°
2026-04-21 21:49 24.96887 46.70362 2039 ft 12 kts 330°
2026-04-21 21:49 24.96958 46.70317 2041 ft 12 kts 330°
2026-04-21 21:49 24.97030 46.70273 2039 ft 12 kts 330°
2026-04-21 21:49 24.97101 46.70229 2041 ft 12 kts 330°
2026-04-21 21:50 24.97172 46.70184 2037 ft 12 kts 330°
2026-04-21 21:50 24.97243 46.70138 2041 ft 12 kts 329°
2026-04-21 21:50 24.97313 46.70092 2040 ft 12 kts 330°
2026-04-21 21:50 24.97374 46.70063 2041 ft 9 kts 351°
2026-04-21 21:51 24.97426 46.70092 2041 ft 11 kts 54°
2026-04-21 21:51 24.97458 46.70150 2035 ft 8 kts 59°
2026-04-21 21:51 24.97486 46.70200 2041 ft 8 kts 59°
2026-04-21 21:51 24.97510 46.70253 2041 ft 8 kts 70°
2026-04-21 21:52 24.97500 46.70308 2042 ft 8 kts 126°
2026-04-21 21:52 24.97461 46.70341 2041 ft 0 kts 147°
2026-04-21 21:52 24.97395 46.70384 2040 ft 46 kts 151°
2026-04-21 21:52 24.96863 46.70728 2043 ft 121 kts 148°
2026-04-21 21:53 24.95862 46.71363 2232 ft 199 kts 148°
2026-04-21 21:53 24.94612 46.72273 3122 ft 221 kts 141°
2026-04-21 21:53 24.93363 46.73227 4767 ft 203 kts 148°
2026-04-21 21:53 24.92212 46.73985 6685 ft 189 kts 154°
2026-04-21 21:54 24.90949 46.74791 7493 ft 229 kts 154°
2026-04-21 21:54 24.89448 46.75739 7986 ft 261 kts 154°
2026-04-21 21:54 24.87849 46.76754 7984 ft 269 kts 154°
2026-04-21 21:54 24.86244 46.77779 8010 ft 265 kts 154°
2026-04-21 21:55 24.84657 46.78797 8015 ft 263 kts 154°
2026-04-21 21:55 24.83068 46.79815 8021 ft 264 kts 154°
2026-04-21 21:55 24.81480 46.80832 8016 ft 265 kts 154°
2026-04-21 21:55 24.79884 46.81858 8013 ft 265 kts 154°
2026-04-21 21:56 24.78297 46.82877 8003 ft 264 kts 154°
2026-04-21 21:56 24.76707 46.83900 8006 ft 265 kts 154°
2026-04-21 21:56 24.75100 46.84920 8038 ft 271 kts 154°
2026-04-21 21:56 24.73426 46.85980 8667 ft 284 kts 154°
2026-04-21 21:57 24.71688 46.87088 9498 ft 293 kts 155°
2026-04-21 21:57 24.69837 46.87949 10218 ft 288 kts 177°
2026-04-21 21:57 24.67819 46.87742 10533 ft 303 kts 205°
2026-04-21 21:57 24.66059 46.86368 10752 ft 326 kts 230°
2026-04-21 21:58 24.64962 46.84149 11111 ft 348 kts 255°
2026-04-21 21:58 24.64482 46.81510 11596 ft 349 kts 251°
2026-04-21 21:58 24.63250 46.79225 12150 ft 357 kts 228°
2026-04-21 21:58 24.61614 46.77203 12675 ft 357 kts 237°
2026-04-21 21:59 24.60795 46.74591 13370 ft 369 kts 263°
2026-04-21 21:59 24.61123 46.71790 14282 ft 379 kts 287°
2026-04-21 21:59 24.62340 46.69199 15087 ft 385 kts 297°
2026-04-21 21:59 24.63716 46.66642 15848 ft 389 kts 295°
2026-04-21 22:00 24.64903 46.63980 16622 ft 389 kts 289°
2026-04-21 22:00 24.65858 46.61189 17405 ft 390 kts 285°
2026-04-21 22:00 24.66628 46.58324 18166 ft 393 kts 282°
2026-04-21 22:00 24.67290 46.55405 18819 ft 395 kts 280°
2026-04-21 22:01 24.67902 46.52449 19443 ft 397 kts 280°
2026-04-21 22:01 24.68497 46.49477 20077 ft 399 kts 280°
2026-04-21 22:01 24.69096 46.46478 20669 ft 403 kts 280°
2026-04-21 22:01 24.69702 46.43455 21242 ft 406 kts 280°
2026-04-21 22:02 24.70316 46.40416 21808 ft 409 kts 281°
2026-04-21 22:02 24.70895 46.37567 22349 ft 412 kts 281°
2026-04-21 22:02 24.71476 46.34703 22869 ft 414 kts 281°
2026-04-21 22:02 24.72087 46.31806 23381 ft 417 kts 283°
2026-04-21 22:03 24.72769 46.29445 23719 ft 421 kts 288°
2026-04-21 22:03 24.73605 46.27127 24112 ft 422 kts 291°
2026-04-21 22:03 24.74864 46.24201 24639 ft 424 kts 295°
2026-04-21 22:03 24.76336 46.21436 25317 ft 421 kts 297°
2026-04-21 22:04 24.77860 46.18661 25730 ft 426 kts 297°
2026-04-21 22:04 24.79403 46.15864 26108 ft 430 kts 297°
2026-04-21 22:04 24.80952 46.13045 26544 ft 432 kts 297°
2026-04-21 22:04 24.82505 46.10209 27016 ft 433 kts 297°
2026-04-21 22:05 24.84059 46.07359 27508 ft 434 kts 297°
2026-04-21 22:05 24.85614 46.04498 27973 ft 435 kts 297°
2026-04-21 22:05 24.87172 46.01627 28412 ft 437 kts 297°
2026-04-21 22:05 24.88734 45.98742 28767 ft 440 kts 297°
2026-04-21 22:06 24.90306 45.95837 29155 ft 442 kts 297°
2026-04-21 22:06 24.91881 45.92929 29530 ft 443 kts 297°
2026-04-21 22:06 24.93460 45.90009 29814 ft 446 kts 297°
2026-04-21 22:07 24.96645 45.84114 29892 ft 448 kts 296°
2026-04-21 22:07 24.99823 45.78228 29895 ft 445 kts 296°
2026-04-21 22:08 25.02964 45.72353 29895 ft 442 kts 294°
2026-04-21 22:08 25.04817 45.65938 30208 ft 441 kts 278°
2026-04-21 22:08 25.05217 45.62590 30525 ft 439 kts 272°
2026-04-21 22:09 25.05157 45.59239 30833 ft 437 kts 266°
2026-04-21 22:09 25.04915 45.55897 31183 ft 436 kts 265°
2026-04-21 22:09 25.04648 45.52577 31592 ft 433 kts 265°
2026-04-21 22:09 25.04383 45.49288 32000 ft 430 kts 265°
2026-04-21 22:10 25.04126 45.46011 32417 ft 427 kts 265°
2026-04-21 22:10 25.03881 45.42759 32830 ft 424 kts 265°
2026-04-21 22:10 25.03643 45.39515 33241 ft 422 kts 265°
2026-04-21 22:10 25.03412 45.36303 33671 ft 419 kts 266°
2026-04-21 22:11 25.03184 45.33106 34068 ft 417 kts 266°
2026-04-21 22:11 25.03005 45.30585 34343 ft 415 kts 266°
2026-04-21 22:11 25.02816 45.27929 34632 ft 413 kts 266°
2026-04-21 22:11 25.02605 45.24975 34919 ft 412 kts 266°
2026-04-21 22:12 25.02475 45.23159 35125 ft 411 kts 266°
2026-04-21 22:12 25.02228 45.19724 35485 ft 409 kts 266°
2026-04-21 22:12 25.02006 45.16641 35801 ft 407 kts 266°
2026-04-21 22:12 25.01783 45.13568 36113 ft 406 kts 266°
2026-04-21 22:13 25.01559 45.10476 36421 ft 405 kts 266°
2026-04-21 22:13 25.01334 45.07390 36752 ft 403 kts 266°
2026-04-21 22:13 25.01110 45.04315 37054 ft 401 kts 267°
2026-04-21 22:13 25.00885 45.01248 37357 ft 400 kts 267°
2026-04-21 22:14 25.00661 44.98197 37641 ft 398 kts 267°
2026-04-21 22:14 25.00437 44.95149 37925 ft 397 kts 267°
2026-04-21 22:14 25.00216 44.92164 38191 ft 396 kts 267°
2026-04-21 22:14 24.99989 44.89096 38467 ft 395 kts 267°
2026-04-21 22:15 24.99765 44.86085 38717 ft 394 kts 267°
2026-04-21 22:15 24.99541 44.83075 38857 ft 394 kts 267°
2026-04-21 22:15 24.99316 44.80056 38988 ft 395 kts 267°
2026-04-21 22:15 24.99090 44.77038 39142 ft 395 kts 267°
2026-04-21 22:16 24.98864 44.74024 39302 ft 395 kts 267°
2026-04-21 22:16 24.98636 44.70999 39457 ft 395 kts 267°
2026-04-21 22:16 24.98409 44.67984 39604 ft 395 kts 267°
2026-04-21 22:16 24.98181 44.64968 39735 ft 396 kts 267°
2026-04-21 22:17 24.97950 44.61930 39823 ft 397 kts 267°
2026-04-21 22:17 24.97489 44.55882 39913 ft 399 kts 267°
2026-04-21 22:18 24.97023 44.49795 39922 ft 397 kts 267°
2026-04-21 22:18 24.96623 44.43733 39919 ft 395 kts 269°
2026-04-21 22:19 24.96450 44.37694 39926 ft 393 kts 269°
2026-04-21 22:19 24.96286 44.31677 39921 ft 393 kts 269°
2026-04-21 22:20 24.96094 44.25660 39926 ft 393 kts 269°
2026-04-21 22:20 24.95889 44.19632 39925 ft 394 kts 269°
2026-04-21 22:21 24.95679 44.13585 39931 ft 395 kts 269°
2026-04-21 22:21 24.95469 44.07575 39929 ft 396 kts 269°
2026-04-21 22:22 24.95254 44.01472 39929 ft 396 kts 269°
2026-04-21 22:22 24.95037 43.95399 39928 ft 397 kts 269°
2026-04-21 22:23 24.94819 43.89351 39930 ft 397 kts 269°
2026-04-21 22:23 24.94597 43.83263 39931 ft 397 kts 269°
2026-04-21 22:24 24.94373 43.77193 39932 ft 397 kts 269°
2026-04-21 22:24 24.94146 43.71106 39931 ft 397 kts 269°
2026-04-21 22:25 24.93917 43.65023 39933 ft 397 kts 269°
2026-04-21 22:25 24.93685 43.58937 39932 ft 397 kts 269°
2026-04-21 22:26 24.93453 43.52905 39933 ft 396 kts 269°
2026-04-21 22:26 24.93216 43.46805 39928 ft 396 kts 269°
2026-04-21 22:27 24.93018 43.41764 39933 ft 396 kts 269°
2026-04-21 22:27 24.92778 43.35704 39922 ft 396 kts 269°
2026-04-21 22:28 24.92535 43.29654 39926 ft 395 kts 269°
2026-04-21 22:28 24.92291 43.23605 39926 ft 394 kts 269°
2026-04-21 22:29 24.92044 43.17572 39905 ft 392 kts 269°
2026-04-21 22:29 24.91921 43.14595 39753 ft 387 kts 269°
2026-04-21 22:29 24.91800 43.11677 39459 ft 385 kts 269°
2026-04-21 22:29 24.91676 43.08687 39068 ft 385 kts 269°
2026-04-21 22:30 24.91555 43.05779 38694 ft 385 kts 269°
2026-04-21 22:30 24.91431 43.02820 38210 ft 385 kts 269°
2026-04-21 22:30 24.91307 42.99864 37493 ft 389 kts 268°
2026-04-21 22:30 24.91180 42.96868 36778 ft 393 kts 268°
2026-04-21 22:31 24.91053 42.93850 36104 ft 395 kts 268°
2026-04-21 22:31 24.90923 42.90817 35462 ft 397 kts 268°
2026-04-21 22:31 24.90792 42.87768 35231 ft 401 kts 268°
2026-04-21 22:31 24.90661 42.84734 35059 ft 402 kts 268°
2026-04-21 22:32 24.90527 42.81652 34944 ft 402 kts 268°
2026-04-21 22:32 24.90258 42.75507 34928 ft 400 kts 268°
2026-04-21 22:33 24.89989 42.69393 34921 ft 400 kts 268°
2026-04-21 22:33 24.89712 42.63176 34916 ft 409 kts 267°
2026-04-21 22:34 24.89432 42.56925 34926 ft 414 kts 267°
2026-04-21 22:34 24.89144 42.50574 34925 ft 416 kts 267°
2026-04-21 22:35 24.88853 42.44216 34928 ft 416 kts 267°
2026-04-21 22:35 24.88557 42.37856 34881 ft 411 kts 266°
2026-04-21 22:36 24.87584 42.28697 34490 ft 394 kts 263°
2026-04-21 22:36 24.87223 42.25713 34191 ft 393 kts 263°
2026-04-21 22:36 24.86864 42.22728 34028 ft 395 kts 263°
2026-04-21 22:37 24.86498 42.19672 33899 ft 406 kts 263°
2026-04-21 22:37 24.86127 42.16561 33761 ft 413 kts 263°
2026-04-21 22:37 24.85751 42.13406 33633 ft 416 kts 263°
2026-04-21 22:37 24.85372 42.10240 33505 ft 417 kts 263°
2026-04-21 22:38 24.84998 42.07115 33381 ft 418 kts 263°
2026-04-21 22:38 24.84618 42.03943 33248 ft 418 kts 263°
2026-04-21 22:38 24.84239 42.00786 33119 ft 417 kts 263°
2026-04-21 22:38 24.83859 41.97625 32986 ft 415 kts 263°
2026-04-21 22:39 24.83480 41.94477 32849 ft 413 kts 263°
2026-04-21 22:39 24.83103 41.91351 32729 ft 411 kts 263°
2026-04-21 22:39 24.82728 41.88239 32600 ft 409 kts 263°
2026-04-21 22:39 24.82358 41.85179 32469 ft 406 kts 263°
2026-04-21 22:40 24.81980 41.82057 32362 ft 412 kts 263°
2026-04-21 22:40 24.81598 41.78903 32246 ft 420 kts 262°
2026-04-21 22:40 24.81207 41.75686 32134 ft 427 kts 262°
2026-04-21 22:40 24.80810 41.72423 32025 ft 431 kts 262°
2026-04-21 22:41 24.80411 41.69157 31900 ft 433 kts 262°
2026-04-21 22:41 24.80010 41.65875 31778 ft 434 kts 262°
2026-04-21 22:41 24.79607 41.62582 31655 ft 434 kts 262°
2026-04-21 22:41 24.79202 41.59283 31537 ft 435 kts 262°
2026-04-21 22:42 24.78797 41.55983 31418 ft 434 kts 262°
2026-04-21 22:42 24.78392 41.52699 31296 ft 432 kts 262°
2026-04-21 22:42 24.77988 41.49423 31174 ft 430 kts 262°
2026-04-21 22:42 24.77587 41.46175 31055 ft 429 kts 262°
2026-04-21 22:43 24.77185 41.42927 30939 ft 427 kts 262°
2026-04-21 22:43 24.76788 41.39730 30814 ft 426 kts 262°
2026-04-21 22:43 24.76387 41.36504 30704 ft 426 kts 262°
2026-04-21 22:43 24.75985 41.33270 30470 ft 428 kts 262°
2026-04-21 22:44 24.75191 41.26902 30453 ft 416 kts 262°
2026-04-21 22:44 24.74796 41.23752 30105 ft 416 kts 262°
2026-04-21 22:44 24.74399 41.20583 29508 ft 420 kts 261°
2026-04-21 22:45 24.73997 41.17389 29039 ft 421 kts 261°
2026-04-21 22:45 24.73597 41.14204 28761 ft 418 kts 261°
2026-04-21 22:45 24.73200 41.11050 28500 ft 415 kts 261°
2026-04-21 22:45 24.72805 41.07920 28186 ft 413 kts 261°
2026-04-21 22:46 24.72411 41.04802 27826 ft 412 kts 261°
2026-04-21 22:46 24.72014 41.01670 27451 ft 411 kts 261°
2026-04-21 22:46 24.71622 40.98578 27099 ft 409 kts 261°
2026-04-21 22:46 24.71225 40.95466 26262 ft 408 kts 261°
2026-04-21 22:47 24.70833 40.92390 25443 ft 404 kts 261°
2026-04-21 22:47 24.70446 40.89350 24617 ft 401 kts 261°
2026-04-21 22:47 24.70060 40.86323 23818 ft 398 kts 261°
2026-04-21 22:47 24.69675 40.83315 22931 ft 397 kts 261°
2026-04-21 22:48 24.69291 40.80320 22086 ft 393 kts 261°
2026-04-21 22:48 24.68911 40.77362 21307 ft 389 kts 261°
2026-04-21 22:48 24.68534 40.74430 20564 ft 385 kts 261°
2026-04-21 22:48 24.68167 40.71578 19841 ft 381 kts 261°
2026-04-21 22:49 24.67811 40.68818 19172 ft 378 kts 261°
2026-04-21 22:49 24.67444 40.65968 18472 ft 375 kts 261°
2026-04-21 22:49 24.67078 40.63143 17739 ft 372 kts 261°
2026-04-21 22:49 24.66713 40.60332 17024 ft 368 kts 261°
2026-04-21 22:50 24.66349 40.57565 16376 ft 364 kts 260°
2026-04-21 22:50 24.65983 40.54820 15914 ft 362 kts 260°
2026-04-21 22:50 24.65623 40.52111 15621 ft 358 kts 260°
2026-04-21 22:50 24.65264 40.49401 15360 ft 354 kts 260°
2026-04-21 22:51 24.64915 40.46730 15066 ft 352 kts 260°
2026-04-21 22:51 24.64572 40.44098 15019 ft 342 kts 260°
2026-04-21 22:51 24.64240 40.41556 14939 ft 326 kts 260°
2026-04-21 22:51 24.63929 40.39166 14817 ft 305 kts 260°
2026-04-21 22:52 24.63636 40.36921 14706 ft 288 kts 260°
2026-04-21 22:52 24.63359 40.34806 14595 ft 273 kts 260°
2026-04-21 22:52 24.63093 40.32781 14420 ft 263 kts 259°
2026-04-21 22:52 24.62831 40.30804 14144 ft 261 kts 259°
2026-04-21 22:53 24.62571 40.28856 14006 ft 260 kts 259°
2026-04-21 22:53 24.62308 40.26894 13917 ft 257 kts 259°
2026-04-21 22:53 24.62049 40.24949 13777 ft 257 kts 259°
2026-04-21 22:53 24.61791 40.23008 13625 ft 257 kts 259°
2026-04-21 22:54 24.61533 40.21062 13478 ft 256 kts 259°
2026-04-21 22:54 24.61276 40.19124 13313 ft 257 kts 259°
2026-04-21 22:54 24.61019 40.17184 13170 ft 256 kts 259°
2026-04-21 22:54 24.60762 40.15247 13031 ft 256 kts 259°
2026-04-21 22:55 24.60508 40.13323 12980 ft 252 kts 259°
2026-04-21 22:55 24.60257 40.11429 12961 ft 248 kts 259°
2026-04-21 22:55 24.60012 40.09573 12872 ft 241 kts 258°
2026-04-21 22:55 24.59774 40.07775 12616 ft 237 kts 258°
2026-04-21 22:56 24.59534 40.05973 12223 ft 239 kts 258°
2026-04-21 22:56 24.59293 40.04154 11816 ft 243 kts 259°
2026-04-21 22:56 24.59058 40.02302 11471 ft 245 kts 258°
2026-04-21 22:56 24.58823 40.00449 11191 ft 243 kts 258°
2026-04-21 22:57 24.58594 39.98628 10920 ft 243 kts 259°
2026-04-21 22:57 24.58355 39.96766 10535 ft 246 kts 258°
2026-04-21 22:57 24.58118 39.94899 10339 ft 242 kts 258°
2026-04-21 22:57 24.57893 39.93118 10345 ft 238 kts 258°
2026-04-21 22:58 24.57660 39.91296 10405 ft 241 kts 258°
2026-04-21 22:58 24.57432 39.89512 10386 ft 232 kts 258°
2026-04-21 22:58 24.57214 39.87793 10378 ft 223 kts 258°
2026-04-21 22:58 24.57001 39.86127 10386 ft 221 kts 258°
2026-04-21 22:59 24.56629 39.84523 10355 ft 217 kts 240°
2026-04-21 22:59 24.55608 39.83268 10382 ft 220 kts 217°
2026-04-21 22:59 24.54204 39.82536 10375 ft 226 kts 200°
2026-04-21 22:59 24.52626 39.82445 10096 ft 233 kts 179°
2026-04-21 23:00 24.51041 39.82770 9927 ft 231 kts 173°
2026-04-21 23:00 24.49470 39.83148 9608 ft 232 kts 174°
2026-04-21 23:00 24.47886 39.83518 9284 ft 232 kts 174°
2026-04-21 23:00 24.46328 39.83867 8940 ft 232 kts 174°
2026-04-21 23:01 24.44745 39.84212 8596 ft 233 kts 174°
2026-04-21 23:01 24.43151 39.84553 8253 ft 233 kts 174°
2026-04-21 23:01 24.41559 39.84894 8027 ft 228 kts 175°
2026-04-21 23:01 24.40039 39.85218 8035 ft 219 kts 175°
2026-04-21 23:02 24.38557 39.85533 8028 ft 218 kts 175°
2026-04-21 23:02 24.37013 39.85856 8044 ft 236 kts 175°
2026-04-21 23:02 24.35356 39.86202 8065 ft 245 kts 174°
2026-04-21 23:02 24.33678 39.86557 8072 ft 245 kts 174°
2026-04-21 23:03 24.32019 39.86910 8073 ft 244 kts 174°
2026-04-21 23:03 24.30358 39.87264 8059 ft 239 kts 174°
2026-04-21 23:03 24.28785 39.87601 8067 ft 220 kts 175°
2026-04-21 23:03 24.27335 39.87909 8034 ft 203 kts 175°
2026-04-21 23:04 24.25968 39.88197 8031 ft 197 kts 176°
2026-04-21 23:04 24.24621 39.88478 8025 ft 198 kts 176°
2026-04-21 23:04 24.23259 39.88761 8030 ft 200 kts 176°
2026-04-21 23:04 24.21934 39.88839 8014 ft 189 kts 200°
2026-04-21 23:05 24.21154 39.88420 8010 ft 183 kts 222°
2026-04-21 23:05 24.20245 39.87080 8016 ft 178 kts 249°
2026-04-21 23:05 24.19949 39.85742 8029 ft 183 kts 257°
2026-04-21 23:05 24.19714 39.84365 8048 ft 185 kts 257°
2026-04-21 23:06 24.19474 39.82974 7986 ft 188 kts 257°
2026-04-21 23:06 24.19227 39.81554 7767 ft 188 kts 258°
2026-04-21 23:06 24.19308 39.80160 7529 ft 188 kts 290°
2026-04-21 23:06 24.20235 39.79128 7341 ft 200 kts 326°
2026-04-21 23:07 24.21553 39.78559 7130 ft 207 kts 334°
2026-04-21 23:07 24.22920 39.78017 6860 ft 210 kts 335°
2026-04-21 23:07 24.24262 39.77556 6744 ft 202 kts 338°
2026-04-21 23:07 24.25622 39.77185 6637 ft 201 kts 341°
2026-04-21 23:08 24.26991 39.76863 6541 ft 201 kts 342°
2026-04-21 23:08 24.28365 39.76559 6461 ft 203 kts 342°
2026-04-21 23:08 24.29780 39.76251 6228 ft 210 kts 344°
2026-04-21 23:08 24.31212 39.75948 6007 ft 206 kts 344°
2026-04-21 23:09 24.32600 39.75653 5792 ft 200 kts 344°
2026-04-21 23:09 24.33958 39.75367 5551 ft 196 kts 345°
2026-04-21 23:09 24.35244 39.75097 5465 ft 183 kts 344°
2026-04-21 23:09 24.36475 39.74832 5365 ft 182 kts 344°
2026-04-21 23:10 24.37731 39.74563 5149 ft 184 kts 345°
2026-04-21 23:10 24.38984 39.74298 4938 ft 178 kts 345°
2026-04-21 23:10 24.39787 39.74126 4833 ft 178 kts 345°
2026-04-21 23:10 24.41000 39.73873 4596 ft 176 kts 346°
2026-04-21 23:11 24.42551 39.73544 4344 ft 169 kts 345°
2026-04-21 23:11 24.43318 39.73378 4185 ft 168 kts 346°
2026-04-21 23:11 24.44447 39.73125 3959 ft 161 kts 346°
2026-04-21 23:11 24.45508 39.72904 3815 ft 152 kts 346°
2026-04-21 23:12 24.46546 39.72708 3584 ft 146 kts 347°
2026-04-21 23:12 24.47551 39.72511 3443 ft 148 kts 345°
2026-04-21 23:12 24.48565 39.72256 3205 ft 149 kts 347°
2026-04-21 23:12 24.49572 39.72042 2971 ft 146 kts 349°
2026-04-21 23:13 24.50569 39.71832 2791 ft 147 kts 349°
2026-04-21 23:13 24.51575 39.71618 2574 ft 147 kts 350°
2026-04-21 23:13 24.52573 39.71405 2370 ft 145 kts 350°
2026-04-21 23:13 24.53565 39.71194 2195 ft 145 kts 352°
2026-04-21 23:14 24.54539 39.70999 2121 ft 137 kts 351°
2026-04-21 23:14 24.55359 39.70824 2114 ft 98 kts 349°
2026-04-21 23:14 24.55876 39.70718 2116 ft 53 kts 347°
2026-04-21 23:14 24.56122 39.70696 2117 ft 32 kts
2026-04-21 23:15 24.56242 39.70742 2115 ft 0 kts 31°
2026-04-21 23:15 24.35444 39.75057 5425 ft 164 kts 345°
2026-04-21 23:16 24.34754 39.75200 5479 ft 189 kts 345°
2026-04-21 23:16 24.34888 39.75172 5470 ft 174 kts 345°
2026-04-21 23:16 24.45824 39.72837 3725 ft 154 kts 348°
2026-04-21 23:17 24.54292 39.71051 2129 ft 144 kts 351°
2026-04-21 23:17 24.51720 39.71587 2532 ft 146 kts 350°
2026-04-21 23:18 24.52044 39.71518 2474 ft 142 kts 350°
2026-04-21 23:18 24.53027 39.71308 2297 ft 146 kts 350°
2026-04-21 23:18 24.54018 39.71107 2144 ft 144 kts 352°
2026-04-21 23:19 24.52524 39.71415 2378 ft 145 kts 350°
2026-04-21 23:19 24.53517 39.71204 2201 ft 145 kts 352°
2026-04-21 23:19 24.54496 39.71007 2122 ft 138 kts 351°
2026-04-21 23:19 24.53425 39.71223 2214 ft 145 kts 352°
2026-04-21 23:20 24.53763 39.71155 2162 ft 144 kts 352°
2026-04-21 23:20 24.54724 39.70967 2118 ft 132 kts 351°
2026-04-21 23:20 24.53894 39.71131 2149 ft 144 kts 352°
2026-04-21 23:20 24.54835 39.70944 2117 ft 128 kts 349°
2026-04-21 23:21 24.55556 39.70785 2114 ft 83 kts 350°
2026-04-21 23:21 24.55975 39.70695 2116 ft 39 kts 353°
2026-04-21 23:21 24.56242 39.70742 2117 ft 0 kts 31°